Overview Statistics Trail Chart Weather Telemetry Raw packets
 

This is the latest recevied weather packets stored in our database for station/object HB9FHL-13. If no packets are shown the sender has not sent any weather packets the latest 10 day(s).

<< 69 70 71 72 73 74 75 >>
Time Temp. Humidity Pressure Rain* Wind** Luminosity Snow
1788245979 17.78° C - 1025.2 hPa 0 mm - - -
1788245679 17.78° C - 1022.2 hPa 0 mm - - -
1788245378 17.22° C - 1025.1 hPa 0 mm - - -
1788245078 16.67° C - 1024.4 hPa 0 mm - - -
1788244777 17.22° C - 1023.4 hPa 0 mm - - -
1788244477 17.22° C - 1024.9 hPa 0 mm - - -
1788243876 16.67° C - 1025 hPa 0 mm - - -
1788243574 16.11° C - 1023.1 hPa 0 mm - - -
1788243270 16.67° C - 1025.7 hPa 0 mm - - -
1788242969 17.22° C - 1025 hPa 0 mm - - -
1788242669 16.11° C - 1023.1 hPa 0 mm - - -
1788242371 16.11° C - 1025.6 hPa 0 mm - - -
1788242066 17.22° C - 1024.6 hPa 0 mm - - -
1788241765 16.67° C - 1023.7 hPa 0 mm - - -
1788241465 16.67° C - 1023 hPa 0 mm - - -
1788241263 16.67° C - 1026 hPa 0 mm - - -
1788241165 16.67° C - 1026 hPa 0 mm - - -
1788240863 16.67° C - 1024.3 hPa 0 mm - - -
1788240562 16.11° C - 1023.1 hPa 0 mm - - -
1788240262 15.56° C - 1025 hPa 0 mm - - -
1788239962 17.22° C - 1024.9 hPa 0 mm - - -
1788239661 16.11° C - 1024.6 hPa 0 mm - - -
1788239361 16.67° C - 1023 hPa 0 mm - - -
1788239108 16.67° C - 1025.5 hPa 0 mm - - -
1788239060 16.67° C - 1025.5 hPa 0 mm - - -

* Rain since midnight (hover to see other rain measurements)
** Current wind speed in m/s (hover to see current wind gust speed)